START_TIME,STEP,MOV.,M29,t_acc.,H22,t_acc.,H26,t_acc.,H30,t_acc.
1979-07-22 23:07:43.490 ,0,0,0.,24.0,0.,24.0,0.,24.0,0.,24.0
1979-07-22 23:08:31.490 ,4,0,0.,24.0,0.,24.0,0.,24.0,0.,24.0
1979-07-22 23:08:55.490 ,3,1,0.,24.0,0.,24.0,0.,24.0,0.,24.0
1979-07-22 23:09:19.490 ,3,0,0.,24.0,0.,24.0,0.,24.0,0.,24.0
1979-07-22 23:09:43.490 ,2,1,0.,24.0,0.,24.0,0.,24.0,0.,24.0
1979-07-22 23:10:07.490 ,2,0,0.,24.0,0.,24.0,0.,24.0,0.,24.0
1979-07-22 23:10:31.490 ,1,1,0.,24.0,0.,24.0,0.,24.0,0.,24.0
1979-07-22 23:10:55.490 ,1,0,0.,24.0,0.,24.0,0.,24.0,0.,24.0
1979-07-22 23:11:19.490 ,0,1,0.,24.0,0.,24.0,0.,24.0,0.,24.0
1979-07-22 23:11:43.490 ,0,0,0.,24.0,0.,24.0,0.,24.0,0.,24.0
1979-07-22 23:12:07.490 ,0,1,0.,24.0,0.,24.0,0.,24.0,0.,24.0
1979-07-22 23:12:31.490 ,0,0,1.,24.0,0.,24.0,0.,24.0,0.,24.0
1979-07-22 23:12:55.490 ,1,1,0.,24.0,0.,24.0,0.,24.0,0.,24.0
1979-07-22 23:13:19.490 ,1,0,0.,24.0,0.,24.0,0.,24.0,0.,24.0
1979-07-22 23:13:43.490 ,2,1,0.,24.0,0.,24.0,0.,24.0,0.,24.0
1979-07-22 23:14:07.490 ,2,0,0.,24.0,0.,24.0,0.,24.0,0.,24.0
1979-07-22 23:14:31.490 ,3,1,0.,24.0,0.,24.0,0.,24.0,0.,24.0
1979-07-22 23:14:55.490 ,3,0,0.,24.0,0.,24.0,0.,24.0,0.,24.0
1979-07-22 23:15:19.490 ,4,1,0.,24.0,0.,24.0,0.,24.0,0.,24.0
1979-07-22 23:15:43.490 ,4,0,0.,24.0,0.,24.0,0.,24.0,0.,24.0
1979-07-22 23:16:07.490 ,5,1,0.,24.0,0.,24.0,0.,24.0,0.,24.0
1979-07-22 23:16:31.490 ,5,0,0.,24.0,0.,24.0,0.,24.0,0.,24.0
1979-07-22 23:16:55.490 ,6,1,0.,24.0,0.,24.0,0.,24.0,0.,24.0
1979-07-22 23:17:19.490 ,6,0,0.,24.0,0.,24.0,0.,24.0,0.,24.0
1979-07-22 23:17:43.490 ,7,1,0.,24.0,0.,24.0,0.,24.0,0.,24.0
1979-07-22 23:18:07.490 ,7,0,0.,24.0,0.,24.0,0.,24.0,0.,24.0
1979-07-22 23:18:31.490 ,7,1,0.,24.0,0.,24.0,0.,24.0,0.,24.0
1979-07-22 23:18:55.490 ,7,0,0.,24.0,0.,24.0,0.,24.0,0.,24.0
1979-07-22 23:19:19.490 ,6,1,0.,24.0,0.,24.0,0.,24.0,0.,24.0
1979-07-22 23:19:43.490 ,6,0,0.,24.0,0.,24.0,0.,24.0,0.,24.0
1979-07-22 23:20:07.490 ,5,1,0.,24.0,0.,24.0,0.,24.0,0.,24.0
1979-07-22 23:20:31.490 ,5,0,0.,24.0,0.,24.0,0.,24.0,0.,24.0
1979-07-22 23:20:55.490 ,4,1,0.,24.0,0.,24.0,0.,24.0,0.,24.0
1979-07-22 23:21:19.490 ,4,0,1.,24.0,0.,24.0,0.,24.0,0.,24.0
1979-07-22 23:21:43.490 ,3,1,0.,24.0,0.,24.0,0.,24.0,0.,24.0
1979-07-22 23:22:07.490 ,3,0,0.,24.0,0.,24.0,0.,24.0,0.,24.0
1979-07-22 23:22:31.490 ,2,1,0.,24.0,0.,24.0,0.,24.0,1.,24.0
1979-07-22 23:22:55.490 ,2,0,0.,24.0,0.,24.0,0.,24.0,0.,24.0
1979-07-22 23:23:19.490 ,1,1,0.,24.0,0.,24.0,0.,24.0,0.,24.0
1979-07-22 23:23:43.490 ,1,0,0.,24.0,0.,24.0,0.,24.0,0.,24.0
1979-07-22 23:24:07.490 ,0,1,0.,24.0,0.,24.0,0.,24.0,0.,24.0
1979-07-22 23:24:31.490 ,0,0,0.,24.0,0.,24.0,0.,24.0,0.,24.0
1979-07-22 23:24:55.490 ,0,1,0.,24.0,0.,24.0,0.,24.0,0.,24.0
1979-07-22 23:25:19.490 ,0,0,0.,24.0,0.,24.0,0.,24.0,0.,24.0
1979-07-22 23:25:43.490 ,1,1,0.,24.0,0.,24.0,0.,24.0,0.,24.0
1979-07-22 23:26:07.490 ,1,0,0.,24.0,0.,24.0,0.,24.0,0.,24.0
1979-07-22 23:26:31.490 ,2,1,0.,24.0,0.,24.0,0.,24.0,0.,24.0
1979-07-22 23:26:55.490 ,2,0,0.,24.0,0.,24.0,0.,24.0,0.,24.0
1979-07-22 23:27:19.490 ,3,1,0.,24.0,0.,24.0,0.,24.0,0.,24.0
1979-07-22 23:27:43.490 ,3,0,0.,24.0,0.,24.0,0.,24.0,0.,24.0
1979-07-22 23:28:07.490 ,4,1,0.,24.0,0.,24.0,0.,24.0,0.,24.0
1979-07-22 23:28:31.490 ,4,0,0.,24.0,0.,24.0,0.,24.0,0.,24.0
1979-07-22 23:28:55.490 ,5,1,0.,24.0,0.,24.0,0.,24.0,0.,24.0
1979-07-22 23:29:19.490 ,5,0,0.,24.0,0.,24.0,0.,24.0,0.,24.0
1979-07-22 23:29:43.490 ,6,1,0.,24.0,0.,24.0,0.,24.0,0.,24.0
1979-07-22 23:30:07.490 ,6,0,0.,24.0,0.,24.0,0.,24.0,0.,24.0
1979-07-22 23:30:31.490 ,7,0,0.,24.0,0.,24.0,0.,24.0,0.,24.0
1979-07-22 23:30:55.490 ,7,0,0.,24.0,0.,24.0,0.,24.0,0.,24.0
1979-07-22 23:31:19.490 ,5,1,0.,24.0,0.,24.0,0.,24.0,0.,24.0
1979-07-22 23:31:43.490 ,1,1,0.,24.0,0.,24.0,0.,24.0,0.,24.0
1979-07-22 23:32:07.490 ,2,1,0.,24.0,0.,24.0,0.,24.0,0.,24.0
1979-07-22 23:32:31.490 ,6,1,0.,24.0,0.,24.0,0.,24.0,0.,24.0
1979-07-22 23:32:55.490 ,5,1,0.,24.0,0.,24.0,0.,24.0,0.,24.0
1979-07-22 23:33:19.490 ,1,1,0.,24.0,0.,24.0,0.,24.0,0.,24.0
1979-07-22 23:33:43.490 ,2,1,0.,24.0,0.,24.0,0.,24.0,0.,24.0
1979-07-22 23:34:07.490 ,6,1,0.,24.0,0.,24.0,0.,24.0,0.,24.0
1979-07-22 23:34:31.490 ,5,1,1.,24.0,0.,24.0,0.,24.0,0.,24.0
1979-07-22 23:34:55.490 ,1,1,0.,24.0,0.,24.0,0.,24.0,0.,24.0
1979-07-22 23:35:19.490 ,2,1,0.,24.0,0.,24.0,0.,24.0,0.,24.0
1979-07-22 23:35:43.490 ,6,1,0.,24.0,0.,24.0,0.,24.0,0.,24.0
1979-07-22 23:36:07.490 ,5,1,0.,24.0,0.,24.0,0.,24.0,0.,24.0
1979-07-22 23:36:31.490 ,1,1,0.,24.0,0.,24.0,0.,24.0,0.,24.0
1979-07-22 23:36:55.490 ,2,1,0.,24.0,0.,24.0,0.,24.0,0.,24.0
1979-07-22 23:37:19.490 ,6,1,0.,24.0,0.,24.0,0.,24.0,0.,24.0
1979-07-22 23:37:43.490 ,5,1,0.,24.0,0.,24.0,0.,24.0,0.,24.0
1979-07-22 23:38:07.490 ,1,1,0.,24.0,0.,24.0,0.,24.0,0.,24.0
1979-07-22 23:38:31.490 ,2,1,0.,24.0,0.,24.0,0.,24.0,0.,24.0
1979-07-22 23:38:55.490 ,6,1,0.,24.0,0.,24.0,0.,24.0,0.,24.0
1979-07-22 23:39:19.490 ,5,1,0.,24.0,0.,24.0,0.,24.0,0.,24.0
1979-07-22 23:39:43.490 ,1,1,0.,24.0,0.,24.0,0.,24.0,0.,24.0
1979-07-22 23:40:07.490 ,2,1,0.,24.0,0.,24.0,0.,24.0,0.,24.0
1979-07-22 23:40:31.490 ,6,1,0.,24.0,0.,24.0,0.,24.0,0.,24.0
1979-07-22 23:40:55.490 ,5,1,0.,24.0,0.,24.0,0.,24.0,0.,24.0
1979-07-22 23:41:19.490 ,1,1,0.,24.0,0.,24.0,0.,24.0,0.,24.0
1979-07-22 23:41:43.490 ,0,0,0.,24.0,0.,24.0,0.,24.0,0.,24.0
1979-07-22 23:42:07.490 ,0,0,0.,24.0,0.,24.0,0.,24.0,0.,24.0
1979-07-22 23:42:31.490 ,5,1,0.,24.0,0.,24.0,0.,24.0,0.,24.0
1979-07-22 23:42:55.490 ,5,0,0.,24.0,0.,24.0,0.,24.0,0.,24.0
1979-07-22 23:43:19.490 ,4,1,0.,24.0,0.,24.0,0.,24.0,0.,24.0
1979-07-22 23:43:43.490 ,4,0,0.,24.0,0.,24.0,0.,24.0,0.,24.0
1979-07-22 23:44:07.490 ,3,1,0.,24.0,0.,24.0,0.,24.0,0.,24.0
1979-07-22 23:44:31.490 ,3,0,0.,24.0,0.,24.0,0.,24.0,0.,24.0
1979-07-22 23:44:55.490 ,2,1,0.,24.0,0.,24.0,0.,24.0,0.,24.0
1979-07-22 23:45:19.490 ,2,0,0.,24.0,0.,24.0,0.,24.0,0.,24.0
1979-07-22 23:45:43.490 ,1,1,0.,24.0,0.,24.0,0.,24.0,0.,24.0
1979-07-22 23:46:07.490 ,1,0,0.,24.0,0.,24.0,0.,24.0,0.,24.0
1979-07-22 23:46:31.490 ,0,1,0.,24.0,0.,24.0,0.,24.0,0.,24.0
1979-07-22 23:46:55.490 ,0,0,0.,24.0,0.,24.0,0.,24.0,0.,24.0
1979-07-22 23:47:19.490 ,0,1,0.,24.0,0.,24.0,0.,24.0,0.,24.0
1979-07-22 23:47:43.490 ,0,0,0.,24.0,0.,24.0,0.,24.0,0.,24.0
1979-07-22 23:48:07.490 ,1,1,0.,24.0,0.,24.0,0.,24.0,0.,24.0
1979-07-22 23:48:31.490 ,1,0,0.,24.0,0.,24.0,0.,24.0,0.,24.0
1979-07-22 23:48:55.490 ,2,1,0.,24.0,0.,24.0,0.,24.0,0.,24.0
1979-07-22 23:49:19.490 ,2,0,0.,24.0,0.,24.0,0.,24.0,0.,24.0
1979-07-22 23:49:43.490 ,3,1,0.,24.0,0.,24.0,0.,24.0,0.,24.0
1979-07-22 23:50:07.490 ,3,0,0.,24.0,0.,24.0,0.,24.0,0.,24.0
1979-07-22 23:50:31.490 ,4,1,0.,24.0,0.,24.0,0.,24.0,0.,24.0
1979-07-22 23:50:55.490 ,4,0,0.,24.0,0.,24.0,0.,24.0,0.,24.0
1979-07-22 23:51:19.490 ,5,1,0.,24.0,0.,24.0,0.,24.0,0.,24.0
1979-07-22 23:51:43.490 ,5,0,0.,24.0,0.,24.0,0.,24.0,0.,24.0
1979-07-22 23:52:07.490 ,6,1,0.,24.0,0.,24.0,1.,24.0,0.,24.0
1979-07-22 23:52:31.490 ,6,0,0.,24.0,0.,24.0,0.,24.0,0.,24.0
1979-07-22 23:52:55.490 ,7,1,0.,24.0,0.,24.0,0.,24.0,0.,24.0
1979-07-22 23:53:19.490 ,7,0,0.,24.0,0.,24.0,0.,24.0,0.,24.0
1979-07-22 23:53:43.490 ,7,1,0.,24.0,0.,24.0,0.,24.0,0.,24.0
1979-07-22 23:54:07.490 ,7,0,0.,24.0,0.,24.0,0.,24.0,0.,24.0
1979-07-22 23:54:31.490 ,6,1,0.,24.0,0.,24.0,0.,24.0,0.,24.0
1979-07-22 23:54:55.490 ,6,0,0.,24.0,0.,24.0,0.,24.0,0.,24.0
1979-07-22 23:55:19.490 ,5,1,0.,24.0,0.,24.0,0.,24.0,0.,24.0
1979-07-22 23:55:43.490 ,5,0,0.,24.0,0.,24.0,0.,24.0,0.,24.0
1979-07-22 23:56:07.490 ,4,1,0.,24.0,0.,24.0,0.,24.0,0.,24.0
1979-07-22 23:56:31.490 ,4,0,0.,24.0,0.,24.0,0.,24.0,0.,24.0
1979-07-22 23:56:55.490 ,3,1,0.,24.0,0.,24.0,0.,24.0,0.,24.0
1979-07-22 23:57:19.490 ,3,0,0.,24.0,0.,24.0,0.,24.0,0.,24.0
1979-07-22 23:57:43.490 ,2,1,0.,24.0,0.,24.0,0.,24.0,0.,24.0
1979-07-22 23:58:07.490 ,2,0,0.,24.0,0.,24.0,0.,24.0,0.,24.0
1979-07-22 23:58:31.490 ,1,1,0.,24.0,0.,24.0,0.,24.0,0.,24.0
1979-07-22 23:58:55.490 ,1,0,0.,24.0,0.,24.0,0.,24.0,0.,24.0
1979-07-22 23:59:19.490 ,0,1,0.,24.0,0.,24.0,0.,24.0,0.,24.0
1979-07-22 23:59:43.490 ,0,0,0.,24.0,0.,24.0,0.,24.0,0.,24.0
1979-07-23 00:00:07.490 ,0,1,0.,24.0,0.,24.0,0.,24.0,0.,24.0
